Theta_e
273 273 273 273 273 273 273 274 275 275 275 275 275 275 275 275 275 277 275 275 278 282
272 271 271 271 272 272 273 274 275 275 274 274 274 274 274 273 273 273 273 273 275 276
271 271 271 271 271 271 272 273 273 273 273 273 273 273 273 273 273 272 273 275 275 278
270 270 270 270 270 271 271 272 272 272 272 272 272 272 272 272 272 271 272 272 272 274
269 269 269 269 269 271 270 271 271 271 271 270 270 271 270 270 271 271 270 271 272 273
268 268 268 268 269 269 269 269 269 269 268 269 269 269 270 270 270 270 270 271 271 272
267 268 267 268 268 268 268 267 267 267 267 268 268 269 269 270 270 270 271 272 272 272
267 267 267 267 267 267 267 266 266 266 266 266 267 268 268 270 270 270 270 271 272 273
266 266 265 265 265 265 265 265 265 265 265 266 267 271 273 274 272 273 273 273 273 274
264 263 263 263 263 263 262 263 264 264 264 264 265 270 273 274 274 273 273 273 273 274
263 261 261 261 260 261 262 263 263 262 263 264 265 270 272 274 273 274 274 274 274 274
261 259 259 257 259 260 261 261 260 263 262 262 263 269 272 274 273 274 275 276 274 274
260 257 257 258 258 260 259 261 262 262 262 263 263 269 272 273 272 273 273 276 275 276
258 257 257 258 259 258 259 261 260 262 264 265 267 267 271 274 272 271 271 273 276 275
Wind_Speed
6 4 6 7 8 9 9 9 11 11 12 13 13 13 14 12 12 14 12 17 16 13
5 6 7 10 9 9 11 11 14 14 15 15 15 15 15 13 15 15 15 16 17 16
6 6 8 9 11 12 12 14 15 16 16 16 15 15 16 15 15 16 14 12 15 15
6 7 9 10 11 12 13 15 16 17 17 17 17 16 16 17 19 19 17 17 19 20
7 8 9 10 12 12 14 15 16 17 18 18 18 17 18 19 18 18 19 18 18 19
8 8 10 11 12 13 15 15 16 17 17 18 19 18 18 19 19 19 19 19 19 18
8 9 10 12 13 13 14 16 16 16 18 18 19 19 20 20 19 18 17 18 18 18
8 9 10 12 13 13 13 14 17 19 17 17 17 14 18 20 19 19 19 18 18 19
10 11 12 12 13 14 15 14 16 17 18 18 14 28 31 27 18 19 19 17 17 17
9 11 12 13 13 14 15 15 16 17 18 19 19 31 32 30 18 18 18 18 18 16
9 10 12 13 13 14 13 15 16 17 18 18 17 32 32 31 19 18 20 19 20 18
9 10 12 12 13 13 14 15 15 15 18 18 20 32 32 27 17 16 22 18 17 16
9 8 11 13 14 14 13 15 14 17 16 19 21 28 31 27 12 15 14 13 16 22
8 9 9 12 13 12 14 14 15 16 15 16 18 20 31 29 15 13 14 13 13 10
Wind_Direction
288 290 279 279 286 288 284 287 290 285 281 282 281 279 276 273 272 274 278 276 274 285
280 274 281 290 287 283 288 292 293 291 288 284 280 277 276 271 271 268 270 267 263 263
283 281 282 287 287 287 290 291 290 290 287 286 282 282 278 272 269 269 266 269 276 275
286 292 288 286 289 289 290 290 290 290 289 288 286 283 278 272 273 269 268 268 265 263
293 293 291 289 291 295 293 290 291 292 293 293 289 286 280 277 274 271 269 268 267 271
295 297 294 298 296 296 294 292 295 296 292 292 289 285 279 275 272 269 268 267 268 266
302 305 298 299 298 296 297 299 298 294 292 290 289 284 283 282 278 274 269 267 262 265
307 301 301 303 297 301 302 300 297 297 295 293 286 283 282 276 273 268 264 261 261 262
310 312 306 305 311 312 307 304 301 298 297 298 291 292 292 288 278 275 273 271 263 261
312 309 313 316 316 313 309 306 304 304 304 299 295 295 292 289 280 272 265 265 267 264
316 311 319 317 318 310 309 310 310 305 301 305 303 302 300 294 283 274 270 254 254 257
323 318 320 314 313 314 311 309 301 301 310 307 301 303 305 300 288 287 285 252 246 245
326 318 310 310 309 311 302 303 305 305 302 301 296 299 313 308 293 293 311 280 254 244
324 312 301 303 303 304 306 308 302 304 309 310 307 311 312 311 317 306 298 289 287 241